STARLINK-2299 (48029 NORAD) Tracking and Keplerian Element Data

This shows tracking and keplerian element data for the satellite.

Feedback or suggestion? Click here.




ElementValue
Catalog48029
NameSTARLINK-2299
Epoch Orbit1527
Epoch Day173.92743255
Epoch Year2021
RAAN136.4073
Inclination53.0557
Eccentricity0.0001272
Argument of Perigee59.4218
Mean Anonmoly300.6896
Mean Motion15.064068
Decay Rate6.11E-06
L11 48029U 21024BE 21173.92743255 .00000611 00000-0 59864-4 0 9997
L22 48029 53.0557 136.4073 0001272 59.4218 300.6896 15.06406800 15272

Live tracking and technical data element details for STARLINK-2299 (NORAD 48029). STARLINK-2299 can be tracked NOW for your location showing map with azimuth and elevation plus other details from your city location.

Track the satellite on the map from your city or location and see movement details for azimuth, elevation, latitude, longitude, range, height, and movement on the map or in text.







IsCatalogInMostPopularTable: catalog: 48029, numindb: 43
Update: records affected: 1



GetName: 48029 STARLINK-2299

Hit Count: updated at: Thu, 24 Jun 2021 04:19:02 GMT